Pompano Beach, FL

4:30 AM EDT on October 19, 2017 (GMT -0400)
Pompano Beach

Weather History for KPMP - November, 2011

Change the Weather History Date:

Monday, November 28, 2011

  Actual Average Record
Temperature  
Mean Temperature 77 °F -  
Max Temperature 81 °F 82 °F 89 °F (1948)
Min Temperature 71 °F 67 °F 37 °F (1956)
Cooling Degree Days 12    
Growing Degree Days 27 (Base 50)    
Moisture  
Dew Point 68 °F    
Average Humidity 74    
Maximum Humidity 87    
Minimum Humidity 62    
Precipitation  
Precipitation 0.01 in - - ()
Sea Level Pressure  
Sea Level Pressure 29.94 in    
Wind  
Wind Speed 14 mph (SSE)    
Max Wind Speed 20 mph    
Max Gust Speed 28 mph    
Visibility 10 miles    
Events      
Averages and records for this station are not official NWS values.
T = Trace of Precipitation, MM = Missing Value Source: NWS Daily Summary

Daily Weather History Graph

Daily Weather History Graph

Search for Another Location

Airport or City:

Trip Planner

Search our weather history database for the weather conditions in past years. The results will help you decide how hot, cold, wet, or windy it might be!

Date:

Astronomy

Nov. 28, 2011 Rise Set
Actual Time 6:48 AM EST 5:28 PM EST
Civil Twilight 6:23 AM EST 5:52 PM EST
Nautical Twilight 5:55 AM EST 6:21 PM EST
Astronomical Twilight 5:27 AM EST 6:49 PM EST
Moon 9:59 AM EST (11/28) 9:08 PM EST (11/28)
Length of Visible Light 11h 29m
Length of Day
10h 39m
Waxing Crescent, 15% of the Moon is Illuminated
Nov 28
Waxing Crescent
Dec 2
First Quarter
Dec 10
Full
Dec 17
Last Quarter
Dec 24
New

Hourly Weather History & Observations

Time (EST) Temp. Heat Index Dew Point Humidity Pressure Visibility Wind Dir Wind Speed Gust Speed Precip Events Conditions
12:53 AM 75.9 °F - 66.9 °F 74% 29.98 in 10.0 mi SE 18.4 mph - N/A   Mostly Cloudy
1:53 AM 75.0 °F - 66.0 °F 73% 29.97 in 10.0 mi SE 15.0 mph - N/A   Scattered Clouds
2:53 AM 75.0 °F - 68.0 °F 79% 29.95 in 10.0 mi SE 16.1 mph - N/A   Mostly Cloudy
3:53 AM 75.9 °F - 68.0 °F 76% 29.94 in 10.0 mi SE 13.8 mph 21.9 mph N/A   Mostly Cloudy
4:53 AM 75.9 °F - 68.0 °F 76% 29.93 in 10.0 mi SE 11.5 mph 19.6 mph N/A   Overcast
5:53 AM 75.9 °F - 68.0 °F 76% 29.94 in 10.0 mi SE 13.8 mph - 0.00 in   Overcast
6:05 AM 75.2 °F - 68.0 °F 78% 29.94 in 10.0 mi SE 15.0 mph 21.9 mph N/A   Overcast
6:53 AM 75.9 °F - 68.0 °F 76% 29.95 in 10.0 mi SE 15.0 mph - N/A   Overcast
7:53 AM 77.0 °F - 69.1 °F 76% 29.95 in 10.0 mi SE 15.0 mph 25.3 mph 0.01 in   Mostly Cloudy
8:53 AM 78.1 °F - 68.0 °F 71% 29.96 in 10.0 mi SE 16.1 mph 26.5 mph N/A   Mostly Cloudy
9:53 AM 79.0 °F - 68.0 °F 69% 29.97 in 10.0 mi SSE 19.6 mph 27.6 mph N/A   Mostly Cloudy
10:53 AM 79.0 °F - 68.0 °F 69% 29.96 in 10.0 mi SSW 10.4 mph 24.2 mph 0.00 in   Mostly Cloudy
11:04 AM 77.0 °F - 69.8 °F 78% 29.96 in 10.0 mi SW 11.5 mph - N/A   Mostly Cloudy
11:53 AM 78.1 °F - 69.1 °F 74% 29.95 in 10.0 mi South 6.9 mph - N/A   Mostly Cloudy
12:53 PM 81.0 °F 83.3 °F 66.9 °F 62% 29.91 in 10.0 mi SSE 17.3 mph 25.3 mph N/A   Scattered Clouds
1:53 PM 81.0 °F 83.8 °F 68.0 °F 65% 29.90 in 10.0 mi SSE 15.0 mph 24.2 mph N/A   Clear
2:53 PM 81.0 °F 83.8 °F 68.0 °F 65% 29.89 in 10.0 mi SSE 13.8 mph - N/A   Scattered Clouds
3:53 PM 80.1 °F 82.9 °F 69.1 °F 69% 29.89 in 10.0 mi SSE 12.7 mph 20.7 mph N/A   Scattered Clouds
5:53 PM 77.0 °F - 66.0 °F 69% 29.91 in 10.0 mi South 6.9 mph - N/A   Scattered Clouds
6:53 PM 75.9 °F - 66.9 °F 74% 29.92 in 10.0 mi South 4.6 mph - N/A   Clear
7:53 PM 75.9 °F - 66.9 °F 74% 29.93 in 10.0 mi South 4.6 mph - N/A   Partly Cloudy
8:53 PM 75.0 °F - 66.0 °F 73% 29.94 in 10.0 mi SSW 3.5 mph - N/A   Scattered Clouds
9:53 PM 73.9 °F - 66.0 °F 76% 29.94 in 10.0 mi Calm Calm - N/A   Mostly Cloudy
10:53 PM 73.0 °F - 66.0 °F 79% 29.94 in 10.0 mi SW 4.6 mph - N/A   Partly Cloudy
11:53 PM 71.1 °F - 66.9 °F 87% 29.94 in 10.0 mi WNW 13.8 mph - N/A   Mostly Cloudy